Terminal Aerodrome Forecast
Issued by NWS

Home | Current Version | Previous Version | Text Only | Print | Product List | Glossary On
Versions: 1 2 3 4 5 6 7 8 9 10 11 12 13 14 15 16 17 18 19 20 21 22 23 24
000
FTUS45 KBOU 180522
TAFBJC
TAF
KBJC 180522Z 1806/1906 30006KT P6SM FEW220
     FM181400 VRB05KT P6SM FEW140 FEW220
     FM182100 25014KT P6SM FEW140 SCT220=

USA.gov is the U.S. government's official web portal to all federal, state and local government web resources and services.